sat.trackr.live / text

‹ back to catalog

STARLINK-34941

NORAD 65210 · 2025-176N

PAYLOAD ACTIVE UNKNOWN

§ Identity

Operator
Country
US
Launch date
2025-08-14
Launch site
AFETR
Launch vehicle
Mass (kg)
RCS (m²)

Purposes: comms

External: N2YO · Heavens-Above · Gunter

§ Orbital elements

Epoch: 2026-09-20T10:36:13.919328Z

Period
93.85 min
Inclination
53.1610°
Eccentricity
0.0001198
Mean motion
15.34406307 rev/d
Perigee alt
461.9 km
Apogee alt
463.5 km
Semi-major
6,840.8 km
B*
3.6722e-4
RAAN
324.1716°
Arg perigee
80.8764°
Mean anomaly
279.2374°
Rev number
6,299

§ Raw data

STARLINK-349411 65210U 25176N   26263.44182777  .00012053  00000+0  36722-3 0  99972 65210  53.1610 324.1716 0001198  80.8764 279.2374 15.34406307 62991

JSON: /api/v1/satellites/65210 · /tle

For live sub-satellite position, see the globe view (requires WebGL).

§ Visibility from observer

Set your observer location to see the next 7 days of passes ≥ 10°. The values pass through the URL so the page stays shareable.

No JS? Fill the form by hand. The geolocation button needs JavaScript.